Weather History for Appleton, MN

Change the Weather History Date:

Tuesday, December 4, 2012

  Actual Average Record
Temperature  
Mean Temperature 24 °F -  
Max Temperature 32 °F 29 °F 48 °F (1998)
Min Temperature 15 °F 14 °F -11 °F (2005)
Degree Days  
Heating Degree Days 42    
Moisture  
Dew Point 15 °F    
Average Humidity 69    
Maximum Humidity 86    
Minimum Humidity 47    
Precipitation  
Precipitation 0.00 in - - ()
Sea Level Pressure  
Sea Level Pressure 30.22 in    
Wind  
Wind Speed 9 mph (NNW)    
Max Wind Speed 18 mph    
Max Gust Speed 21 mph    
Visibility 10 miles    
Events      
Averages and records for this station are not official NWS values.
T = Trace of Precipitation, MM = Missing Value Source: NWS Daily Summary

Daily Weather History Graph

Daily Weather History Graph

Search for Another Location

Airport:

Trip Planner

Search our weather history database for the weather conditions in past years. The results will help you decide how hot, cold, wet, or windy it might be!

Date:

Astronomy

Dec. 04, 2012 Rise Set
Actual Time 7:46 AM CST 4:42 PM CST
Civil Twilight 7:13 AM CST 5:15 PM CST
Nautical Twilight 6:36 AM CST 5:52 PM CST
Astronomical Twilight 6:00 AM CST 6:28 PM CST
Moon 10:41 PM CST (12/4) 11:31 AM CST (12/4)
Length of Visible Light 10h 02m
Length of Day
8h 55m
Waning Gibbous, 69% of the Moon is Illuminated
Dec 4
Waning Gibbous
Dec 6
Last Quarter
Dec 13
New
Dec 19
First Quarter
Dec 28
Full

Hourly Weather History & Observations

Time (CST) Temp. Windchill Dew Point Humidity Pressure Visibility Wind Dir Wind Speed Gust Speed Precip Events Conditions
12:14 AM 30.2 °F 21.9 °F 23.0 °F 75% 29.98 in 10.0 mi West 9.2 mph - N/A   Clear
12:34 AM 30.2 °F 22.6 °F 23.0 °F 75% 29.98 in 10.0 mi WNW 8.1 mph - N/A   Clear
12:54 AM 30.2 °F 24.3 °F 23.0 °F 75% 29.99 in 10.0 mi WNW 5.8 mph - N/A   Clear
1:14 AM 30.2 °F 21.9 °F 23.0 °F 75% 29.99 in 10.0 mi West 9.2 mph - N/A   Clear
1:34 AM 30.2 °F 21.9 °F 23.0 °F 75% 30.00 in 10.0 mi West 9.2 mph - N/A   Clear
1:54 AM 32.0 °F 24.2 °F 24.8 °F 75% 29.99 in 10.0 mi West 9.2 mph - N/A   Clear
2:14 AM 30.2 °F 22.6 °F 23.0 °F 75% 30.01 in 10.0 mi West 8.1 mph - N/A   Clear
2:34 AM 26.6 °F 20.0 °F 23.0 °F 86% 30.01 in 10.0 mi West 5.8 mph - N/A   Clear
2:54 AM 30.2 °F 22.6 °F 24.8 °F 80% 30.02 in 10.0 mi NW 8.1 mph - N/A   Clear
3:14 AM 30.2 °F 21.3 °F 24.8 °F 80% 30.04 in 10.0 mi North 10.4 mph - N/A   Clear
3:34 AM 26.6 °F 18.2 °F 23.0 °F 86% 30.04 in 10.0 mi North 8.1 mph - N/A   Clear
3:54 AM 26.6 °F 17.5 °F 21.2 °F 80% 30.05 in 10.0 mi NNW 9.2 mph - N/A   Clear
4:13 AM 26.6 °F 16.8 °F 19.4 °F 74% 30.06 in 10.0 mi North 10.4 mph - N/A   Clear
4:34 AM 24.8 °F 15.3 °F 19.4 °F 80% 30.07 in 10.0 mi NNW 9.2 mph - N/A   Clear
4:54 AM 24.8 °F 12.9 °F 19.4 °F 80% 30.07 in 10.0 mi NNW 13.8 mph - N/A   Clear
5:14 AM 26.6 °F 15.7 °F 19.4 °F 74% 30.08 in 10.0 mi NNW 12.7 mph - N/A   Clear
5:34 AM 26.6 °F 15.7 °F 19.4 °F 74% 30.09 in 10.0 mi NW 12.7 mph - N/A   Clear
5:54 AM 24.8 °F 11.9 °F 17.6 °F 74% 30.10 in 10.0 mi NW 16.1 mph 20.7 mph N/A   Clear
6:14 AM 24.8 °F 11.1 °F 15.8 °F 69% 30.11 in 10.0 mi NW 18.4 mph - N/A   Clear
6:34 AM 24.8 °F 13.4 °F 15.8 °F 69% 30.12 in 10.0 mi WNW 12.7 mph 18.4 mph N/A   Clear
6:54 AM 23.0 °F 13.1 °F 15.8 °F 74% 30.13 in 10.0 mi WNW 9.2 mph - N/A   Clear
7:14 AM 23.0 °F 13.1 °F 15.8 °F 74% 30.14 in 10.0 mi NW 9.2 mph - N/A   Clear
7:34 AM 21.2 °F 14.9 °F 15.8 °F 80% 30.16 in 10.0 mi NW 4.6 mph - N/A   Clear
7:54 AM 21.2 °F 8.9 °F 15.8 °F 80% 30.17 in 10.0 mi NW 12.7 mph - N/A   Clear
8:14 AM 21.2 °F 9.5 °F 15.8 °F 80% 30.18 in 10.0 mi NW 11.5 mph - N/A   Clear
8:34 AM 23.0 °F 11.1 °F 15.8 °F 74% 30.20 in 10.0 mi NW 12.7 mph - N/A   Clear
8:54 AM 24.8 °F 12.9 °F 15.8 °F 69% 30.20 in 10.0 mi NW 13.8 mph - N/A   Clear
9:14 AM 24.8 °F 13.4 °F 15.8 °F 69% 30.21 in 10.0 mi NW 12.7 mph - N/A   Clear
9:34 AM 24.8 °F 13.4 °F 15.8 °F 69% 30.22 in 10.0 mi NW 12.7 mph - N/A   Clear
9:54 AM 24.8 °F 11.1 °F 14.0 °F 64% 30.23 in 10.0 mi NW 18.4 mph - N/A   Clear
10:14 AM 24.8 °F 12.4 °F 14.0 °F 64% 30.24 in 10.0 mi NNW 15.0 mph 20.7 mph N/A   Clear
10:35 AM 26.6 °F 15.2 °F 14.0 °F 59% 30.26 in 10.0 mi NNW 13.8 mph - N/A   Clear
10:54 AM 26.6 °F 15.7 °F 15.8 °F 64% 30.26 in 10.0 mi NNW 12.7 mph - N/A   Clear
11:14 AM 26.6 °F 16.2 °F 14.0 °F 59% 30.26 in 10.0 mi NNW 11.5 mph - N/A   Clear
11:34 AM 26.6 °F 15.2 °F 14.0 °F 59% 30.26 in 10.0 mi NNW 13.8 mph - N/A   Clear
11:54 AM 28.4 °F 17.0 °F 14.0 °F 55% 30.26 in 10.0 mi NNW 15.0 mph 18.4 mph N/A   Clear
12:14 PM 28.4 °F 17.5 °F 12.2 °F 51% 30.27 in 10.0 mi NNW 13.8 mph - N/A   Clear
12:34 PM 28.4 °F 18.0 °F 12.2 °F 51% 30.26 in 10.0 mi NNW 12.7 mph 18.4 mph N/A   Clear
12:54 PM 28.4 °F 18.0 °F 12.2 °F 51% 30.27 in 10.0 mi NNW 12.7 mph - N/A   Clear
1:14 PM 28.4 °F 19.1 °F 12.2 °F 51% 30.27 in 10.0 mi NNW 10.4 mph 16.1 mph N/A   Clear
1:34 PM 28.4 °F 18.5 °F 12.2 °F 51% 30.28 in 10.0 mi NNW 11.5 mph - N/A   Clear
1:54 PM 28.4 °F 19.7 °F 12.2 °F 51% 30.28 in 10.0 mi NNW 9.2 mph 16.1 mph N/A   Clear
2:14 PM 28.4 °F 18.5 °F 12.2 °F 51% 30.28 in 10.0 mi North 11.5 mph - N/A   Clear
2:33 PM 28.4 °F 19.7 °F 12.2 °F 51% 30.28 in 10.0 mi NNW 9.2 mph - N/A   Clear
2:53 PM 28.4 °F 19.1 °F 12.2 °F 51% 30.28 in 10.0 mi NNW 10.4 mph - N/A   Clear
3:14 PM 28.4 °F 18.0 °F 12.2 °F 51% 30.28 in 10.0 mi NNW 12.7 mph - N/A   Clear
3:34 PM 28.4 °F 19.1 °F 10.4 °F 47% 30.29 in 10.0 mi NNW 10.4 mph - N/A   Clear
3:54 PM 26.6 °F 16.8 °F 12.2 °F 55% 30.30 in 10.0 mi North 10.4 mph - N/A   Clear
4:14 PM 26.6 °F 19.1 °F 10.4 °F 51% 30.31 in 10.0 mi NNW 6.9 mph - N/A   Clear
4:54 PM 21.2 °F 13.6 °F 10.4 °F 63% 30.32 in 10.0 mi NNW 5.8 mph - N/A   Clear
5:13 PM 21.2 °F 14.9 °F 10.4 °F 63% 30.31 in 10.0 mi NNW 4.6 mph - N/A   Clear
5:33 PM 21.2 °F 14.9 °F 10.4 °F 63% 30.32 in 10.0 mi NNW 4.6 mph - N/A   Clear
5:54 PM 19.4 °F 12.8 °F 10.4 °F 68% 30.32 in 10.0 mi NNW 4.6 mph - N/A   Clear
6:13 PM 19.4 °F 12.8 °F 10.4 °F 68% 30.32 in 10.0 mi NNW 4.6 mph - N/A   Clear
6:33 PM 15.8 °F - 8.6 °F 73% 30.32 in 10.0 mi Calm Calm - N/A   Clear
6:53 PM 15.8 °F - 8.6 °F 73% 30.33 in 10.0 mi Calm Calm - N/A   Clear
7:13 PM 15.8 °F - 8.6 °F 73% 30.33 in 10.0 mi Calm Calm - N/A   Clear
7:33 PM 15.8 °F - 10.4 °F 79% 30.33 in 10.0 mi Calm Calm - N/A   Clear
7:54 PM 17.6 °F - 10.4 °F 73% 30.34 in 10.0 mi Calm Calm - N/A   Clear
8:14 PM 15.8 °F - 8.6 °F 73% 30.34 in 10.0 mi Calm Calm - N/A   Clear
8:33 PM 15.8 °F - 8.6 °F 73% 30.35 in 10.0 mi Calm Calm - N/A   Clear
8:53 PM 15.8 °F - 10.4 °F 79% 30.36 in 10.0 mi Calm Calm - N/A   Clear
9:13 PM 15.8 °F - 10.4 °F 79% 30.35 in 10.0 mi Calm Calm - N/A   Clear
9:33 PM 17.6 °F 12.3 °F 12.2 °F 79% 30.36 in 10.0 mi NNE 3.5 mph - N/A   Clear
9:53 PM 17.6 °F 12.3 °F 12.2 °F 79% 30.36 in 10.0 mi ENE 3.5 mph - N/A   Clear
10:13 PM 17.6 °F 12.3 °F 10.4 °F 73% 30.37 in 10.0 mi NE 3.5 mph - N/A   Clear
10:33 PM 17.6 °F - 12.2 °F 79% 30.36 in 10.0 mi Calm Calm - N/A   Clear
10:53 PM 15.8 °F - 10.4 °F 79% 30.37 in 10.0 mi Calm Calm - N/A   Clear
11:13 PM 15.8 °F 10.2 °F 10.4 °F 79% 30.36 in 10.0 mi East 3.5 mph - N/A   Clear
11:33 PM 15.8 °F 8.6 °F 10.4 °F 79% 30.36 in 10.0 mi East 4.6 mph - N/A   Clear
11:53 PM 17.6 °F - 12.2 °F 79% 30.36 in 10.0 mi Calm Calm - N/A   Clear